Waarnemingen

Advertentie
Mijn weer
Toulouse/Blagnac, Frankrijk (7630): temperatuur & dauwpunt: 09.10.2019 21:00:00 - 15.10.2019 21:00:00 (CEST)Toulouse/Blagnac, Frankrijk (7630): temperatuur 5cm: 09.10.2019 21:00:00 - 15.10.2019 21:00:00 (CEST)Toulouse/Blagnac, Frankrijk (7630): temperatuur -20cm & temperatuur -100cm: 09.10.2019 21:00:00 - 15.10.2019 21:00:00 (CEST)Toulouse/Blagnac, Frankrijk (7630): windsnelheid & windstoten: 09.10.2019 21:00:00 - 15.10.2019 21:00:00 (CEST)Toulouse/Blagnac, Frankrijk (7630): windrichting: 09.10.2019 21:00:00 - 15.10.2019 21:00:00 (CEST)Toulouse/Blagnac, Frankrijk (7630): luchtdruk: 09.10.2019 21:00:00 - 15.10.2019 21:00:00 (CEST)Toulouse/Blagnac, Frankrijk (7630): zicht: 09.10.2019 21:00:00 - 15.10.2019 21:00:00 (CEST)Toulouse/Blagnac, Frankrijk (7630): Zonneschijnduur: 09.10.2019 21:00:00 - 15.10.2019 21:00:00 (CEST)Toulouse/Blagnac, Frankrijk (7630): neerslag: 09.10.2019 21:00:00 - 15.10.2019 21:00:00 (CEST)
Datum & Tijd tt [°C] td [°C] tt 5cm [°C] tt -20cm [°C] tt -100cm [°C] ff [km/u] ff [kn] fx [km/u] fx [kn] dd ppp [hPa] vv [km] sd [min] rr [mm]
15.10.2019 21:00:00 - - - - - - - - - - - - - -
15.10.2019 20:00:00 15,2 8,0 14,0 18,0 19,1 13 7 39 21 WNW 1019,1 60 0 0,0
15.10.2019 19:00:00 16,6 7,5 16,2 18,1 19,1 23 13 43 23 W 1018,2 58 48 0,0
15.10.2019 18:00:00 17,5 7,2 17,8 18,1 19,1 26 14 38 21 W 1017,4 28 38 0,0
15.10.2019 17:00:00 17,7 7,1 18,2 18,0 19,1 27 15 44 24 W 1017,1 24 38 0,0
15.10.2019 16:00:00 17,6 7,9 18,3 17,9 19,1 28 15 47 26 W 1017,2 33 19 0,0
15.10.2019 15:00:00 18,0 6,5 19,8 17,9 19,1 29 16 45 24 W 1016,9 20 46 0,0
15.10.2019 14:00:00 17,5 7,5 18,6 17,8 19,1 29 16 49 27 W 1017,2 20 44 0,0
15.10.2019 13:00:00 16,7 7,9 17,6 17,8 19,1 34 18 52 28 W 1017,2 22 48 0,0
15.10.2019 12:00:00 15,4 7,7 16,5 17,9 19,1 32 18 50 27 W 1017,3 29 48 0,0
15.10.2019 11:00:00 14,2 9,0 12,8 18,0 19,1 30 16 45 24 W 1016,8 33 49 0,0
15.10.2019 10:00:00 12,3 8,9 11,3 18,2 19,1 24 13 45 25 WZW 1016,2 44 3 0,0
15.10.2019 09:00:00 11,5 9,1 10,3 18,4 19,1 14 8 30 16 WZW 1015,6 60 10 0,0
15.10.2019 08:00:00 11,1 8,7 10,1 18,6 19,1 22 12 41 22 W 1014,4 60 0 0,0
15.10.2019 07:00:00 11,7 9,6 10,7 18,7 19,1 19 11 38 20 W 1014,3 60 0 0,2
15.10.2019 06:00:00 12,1 10,3 11,3 18,9 19,1 24 13 40 22 W 1013,8 46 0 0,0
15.10.2019 05:00:00 12,4 11,1 11,6 19,0 19,1 23 12 37 20 W 1013,3 28 0 0,8
15.10.2019 04:00:00 13,3 12,4 12,5 19,2 19,1 8 5 23 12 ZW 1012,1 5 0 1,2
15.10.2019 03:00:00 13,5 12,1 12,6 19,3 19,1 11 6 24 13 NW 1011,6 60 0 0,0
15.10.2019 02:00:00 13,5 11,9 12,6 19,4 19,1 19 10 40 22 WNW 1012,4 9 0 0,6
15.10.2019 01:00:00 14,9 13,3 14,5 19,5 19,1 19 10 34 18 WNW 1011,5 53 0 0,0
15.10.2019 00:00:00 15,4 14,4 14,8 19,6 19,1 11 6 24 13 WNW 1010,8 39 0 0,2
14.10.2019 23:00:00 15,9 14,8 15,0 19,7 19,1 14 8 30 16 NNW 1008,7 17 0 0,6
14.10.2019 22:00:00 16,5 14,3 15,4 19,7 19,1 20 11 34 18 WNW 1009,0 39 0 1,6
14.10.2019 21:00:00 20,5 17,7 19,8 19,7 19,1 22 12 53 29 ZZO 1007,6 14 0 0,0
14.10.2019 20:00:00 20,8 17,4 20,2 19,7 19,1 35 19 70 38 ZO 1006,8 14 0 0,0
14.10.2019 19:00:00 21,3 17,1 20,8 19,7 19,0 45 24 70 38 ZO 1006,6 16 37 0,0
14.10.2019 18:00:00 21,7 16,6 21,6 19,6 19,1 40 21 65 35 ZO 1007,6 16 0 0,0
14.10.2019 17:00:00 22,0 16,7 21,7 19,5 19,0 41 22 64 35 ZO 1008,2 15 0 0,0
14.10.2019 16:00:00 22,1 16,6 21,6 19,5 19,0 29 16 67 36 ZZO 1009,1 12 0 0,0
14.10.2019 15:00:00 22,5 15,8 23,6 19,4 19,0 41 22 69 38 ZO 1008,7 19 0 0,0
14.10.2019 14:00:00 22,2 16,0 21,4 19,4 19,0 42 23 84 45 ZO 1008,7 19 0 0,0
14.10.2019 13:00:00 21,2 16,2 21,3 19,3 19,0 45 24 75 40 ZO 1009,1 13 0 0,0
14.10.2019 12:00:00 21,4 16,1 21,7 19,3 19,0 47 26 79 43 ZO 1009,9 14 0 0,0
14.10.2019 11:00:00 21,9 16,0 23,2 19,3 19,1 37 20 79 43 ZO 1010,4 16 54 0,0
14.10.2019 10:00:00 20,9 15,9 20,2 19,4 19,1 39 21 64 35 ZO 1010,5 19 60 0,0
14.10.2019 09:00:00 19,5 15,8 18,1 19,5 19,1 40 21 71 39 ZO 1010,6 21 24 0,0
14.10.2019 08:00:00 18,9 15,8 17,9 19,5 19,0 39 21 70 38 ZO 1010,9 19 0 0,0
14.10.2019 07:00:00 18,9 15,8 17,7 19,6 19,1 31 17 57 31 ZO 1011,8 21 0 0,0
14.10.2019 06:00:00 18,8 15,7 18,0 19,6 19,0 34 18 63 34 ZO 1012,1 21 0 0,0
14.10.2019 05:00:00 19,0 15,9 18,1 19,7 19,0 40 22 65 35 ZO 1011,6 21 0 0,0
14.10.2019 04:00:00 19,2 15,9 18,4 19,8 19,1 35 19 62 33 ZO 1011,8 22 0 0,0
14.10.2019 03:00:00 19,7 16,2 18,7 19,8 19,0 29 16 58 31 ZO 1012,0 24 0 0,0
14.10.2019 02:00:00 19,9 16,5 19,0 19,9 19,1 30 16 62 33 ZO 1012,2 22 0 0,0
14.10.2019 01:00:00 19,9 16,7 18,6 20,0 19,0 24 13 44 24 OZO 1012,9 23 0 0,0
14.10.2019 00:00:00 19,6 16,8 18,8 20,0 19,0 23 12 49 26 ZO 1013,6 21 0 0,0
13.10.2019 23:00:00 19,7 16,5 19,2 20,1 19,0 27 14 49 27 OZO 1013,9 24 0 0,0
13.10.2019 22:00:00 19,7 16,3 19,1 20,1 19,0 30 16 47 26 ZO 1013,8 24 0 0,0
13.10.2019 21:00:00 20,0 16,6 19,6 20,1 19,1 31 17 55 30 OZO 1013,8 24 0 0,0
13.10.2019 20:00:00 20,3 16,9 20,0 20,1 19,0 31 17 64 35 OZO 1013,5 23 0 0,0
13.10.2019 19:00:00 21,0 17,0 20,9 20,1 19,1 29 16 61 33 OZO 1013,4 28 9 0,0
13.10.2019 18:00:00 22,4 16,9 23,9 20,0 19,1 28 15 57 31 OZO 1013,3 13 60 0,0
13.10.2019 17:00:00 23,4 16,7 24,7 19,8 19,1 41 22 68 37 ZO 1013,1 12 60 0,0
13.10.2019 16:00:00 24,8 16,2 28,8 19,6 19,1 35 19 64 34 OZO 1012,8 12 60 0,0
13.10.2019 15:00:00 25,2 16,3 29,2 19,3 19,1 36 19 71 38 ZO 1012,8 10 60 0,0
13.10.2019 14:00:00 25,8 16,6 29,1 19,1 19,0 34 18 59 32 ZO 1013,5 12 60 0,0
13.10.2019 13:00:00 25,0 16,2 27,7 19,0 19,1 34 18 60 32 ZO 1013,9 11 60 0,0
13.10.2019 12:00:00 24,2 15,9 25,7 18,9 19,0 38 20 66 35 ZO 1014,0 13 60 0,0
13.10.2019 11:00:00 22,9 16,4 23,5 18,9 19,1 35 19 61 33 ZO 1014,0 15 60 0,0
13.10.2019 10:00:00 21,3 16,5 21,0 18,9 19,1 35 19 56 30 ZO 1013,8 17 60 0,0
13.10.2019 09:00:00 19,7 16,3 18,1 18,9 19,1 23 12 46 25 ZO 1014,1 35 33 0,0
13.10.2019 08:00:00 19,1 16,1 18,0 19,0 19,1 23 12 54 29 ZO 1013,8 27 0 0,0
13.10.2019 07:00:00 19,0 16,2 18,0 19,0 19,1 26 14 49 26 ZO 1013,4 28 0 0,0
13.10.2019 06:00:00 19,1 16,1 18,1 19,1 19,1 26 14 53 29 ZO 1013,3 29 0 0,0
13.10.2019 05:00:00 19,4 16,2 18,6 19,1 19,1 32 17 54 29 ZO 1013,6 30 0 0,0
13.10.2019 04:00:00 19,6 16,4 18,4 19,2 19,1 22 12 61 33 ZO 1014,3 32 0 0,0
13.10.2019 03:00:00 19,5 16,7 18,9 19,2 19,1 32 17 58 31 ZO 1014,5 27 0 0,0
13.10.2019 02:00:00 19,5 16,7 19,1 19,2 19,1 29 16 63 34 ZO 1015,1 33 0 0,0
13.10.2019 01:00:00 19,5 16,5 19,1 19,3 19,1 35 19 62 34 ZO 1014,9 35 0 0,0
13.10.2019 00:00:00 19,6 16,6 19,0 19,3 19,1 34 19 58 31 ZO 1015,0 37 0 0,0
12.10.2019 23:00:00 19,8 16,6 19,4 19,3 19,1 30 16 57 31 ZO 1015,3 34 0 0,0
12.10.2019 22:00:00 19,9 16,7 19,3 19,3 19,1 33 18 60 33 ZO 1015,2 32 0 0,0
12.10.2019 21:00:00 20,2 16,4 19,6 19,3 19,1 35 19 62 34 OZO 1015,1 28 0 0,0
12.10.2019 20:00:00 21,2 16,4 20,7 19,3 19,1 32 18 59 32 ZO 1015,0 30 0 0,0
12.10.2019 19:00:00 22,3 15,9 21,9 19,2 19,1 30 16 58 31 ZO 1014,6 34 0 0,0
12.10.2019 18:00:00 23,4 15,7 23,6 19,0 19,2 26 14 49 27 ZO 1014,6 36 3 0,0
12.10.2019 17:00:00 24,2 16,2 25,5 18,9 19,2 29 16 47 26 ZO 1014,7 28 32 0,0
12.10.2019 16:00:00 25,4 16,5 26,5 18,6 19,2 27 14 48 26 ZO 1014,9 28 39 0,0
12.10.2019 15:00:00 24,4 16,4 26,3 18,4 19,2 29 16 46 25 ZO 1015,3 30 23 0,0
12.10.2019 14:00:00 24,1 16,6 25,3 18,2 19,2 31 17 50 27 ZO 1015,7 31 19 0,0
12.10.2019 13:00:00 24,1 16,9 25,5 18,1 19,2 33 18 51 28 ZZO 1016,0 34 36 0,0
12.10.2019 12:00:00 22,2 16,9 22,4 18,0 19,2 26 14 42 23 ZO 1016,4 40 10 0,0
12.10.2019 11:00:00 20,8 16,8 20,3 18,0 19,2 25 13 36 20 ZZO 1016,2 25 0 0,0
12.10.2019 10:00:00 19,6 16,8 18,8 17,9 19,2 20 11 54 29 ZO 1015,7 21 0 0,0
12.10.2019 09:00:00 18,9 16,9 18,2 17,9 19,2 31 17 53 29 ZO 1014,9 15 0 0,0
12.10.2019 08:00:00 18,6 16,7 18,2 17,9 19,2 35 19 58 31 ZO 1014,4 15 0 0,0
12.10.2019 07:00:00 18,6 16,4 17,8 17,9 19,2 31 17 50 27 ZZO 1015,2 15 0 0,0
12.10.2019 06:00:00 18,3 16,3 17,3 17,9 19,2 24 13 36 19 ZO 1014,8 16 0 0,0
12.10.2019 05:00:00 18,1 15,9 17,1 17,9 19,2 23 12 45 24 ZO 1014,9 19 0 0,0
12.10.2019 04:00:00 18,0 15,3 16,7 18,0 19,2 23 12 37 20 ZO 1015,6 24 0 0,0
12.10.2019 03:00:00 17,8 14,9 16,7 18,0 19,3 20 11 40 22 ZZO 1016,4 27 0 0,0
12.10.2019 02:00:00 17,7 14,8 16,5 18,1 19,3 21 11 47 25 ZO 1016,7 28 0 0,0
12.10.2019 01:00:00 17,4 14,1 16,2 18,1 19,3 21 12 45 24 ZO 1017,1 31 0 0,0
12.10.2019 00:00:00 17,2 13,3 16,1 18,2 19,3 27 15 49 27 ZO 1017,6 38 0 0,0
11.10.2019 23:00:00 17,2 12,9 16,2 18,2 19,3 27 14 47 25 ZO 1017,9 41 0 0,0
11.10.2019 22:00:00 17,3 12,4 16,3 18,2 19,3 27 14 51 28 ZO 1017,7 43 0 0,0
11.10.2019 21:00:00 17,5 11,5 16,7 18,2 19,3 30 16 53 29 ZO 1017,5 43 0 0,0
11.10.2019 20:00:00 18,5 12,3 17,5 18,1 19,3 26 14 45 24 ZO 1017,7 42 0 0,0
11.10.2019 19:00:00 20,2 12,7 20,1 18,1 19,3 28 15 45 25 ZZO 1017,2 31 57 0,0
11.10.2019 18:00:00 22,6 13,1 24,8 17,9 19,3 29 15 44 24 ZO 1016,9 26 60 0,0
11.10.2019 17:00:00 24,0 12,6 25,4 17,7 19,3 27 14 41 22 ZO 1016,7 17 60 0,0
11.10.2019 16:00:00 25,0 11,5 29,5 17,3 19,3 24 13 45 24 ZO 1017,1 16 60 0,0
11.10.2019 15:00:00 24,5 11,4 29,0 17,0 19,3 28 15 48 26 ZO 1017,5 17 60 0,0
11.10.2019 14:00:00 24,4 11,7 28,1 16,8 19,4 27 14 46 25 ZO 1018,3 19 60 0,0
11.10.2019 13:00:00 23,2 10,3 25,3 16,5 19,3 27 14 45 24 ZO 1018,9 20 60 0,0
11.10.2019 12:00:00 21,4 9,9 22,3 16,5 19,4 26 14 42 23 ZO 1019,4 23 60 0,0
11.10.2019 11:00:00 17,5 9,9 16,3 16,5 19,4 14 7 25 14 OZO 1020,1 23 60 0,0
11.10.2019 10:00:00 13,5 8,5 11,9 16,5 19,3 18 10 30 16 OZO 1020,3 24 60 0,0
11.10.2019 09:00:00 10,7 8,5 4,6 16,7 19,4 7 4 13 7 ZO 1020,0 21 27 0,0
11.10.2019 08:00:00 8,3 7,2 4,4 16,9 19,4 6 3 14 7 ZZO 1020,1 27 0 0,0
11.10.2019 07:00:00 9,3 8,1 5,6 17,0 19,4 7 4 13 7 OZO 1019,9 24 0 0,0
11.10.2019 06:00:00 8,7 7,9 3,1 17,2 19,4 7 4 10 6 OZO 1020,7 25 0 0,0
11.10.2019 05:00:00 8,6 7,1 3,3 17,4 19,4 5 3 9 5 ZO 1021,2 25 0 0,0
11.10.2019 04:00:00 9,3 8,1 4,7 17,5 19,4 4 2 7 4 Z 1021,7 30 0 0,0
11.10.2019 03:00:00 9,7 8,0 4,4 17,7 19,4 6 4 8 4 Z 1022,4 29 0 0,0
11.10.2019 02:00:00 10,5 8,4 6,6 17,9 19,5 7 4 8 4 Z 1022,6 28 0 0,0
11.10.2019 01:00:00 11,3 9,4 6,7 18,1 19,4 5 3 10 5 Z 1022,7 16 0 0,0
11.10.2019 00:00:00 12,3 9,7 7,0 18,2 19,4 6 3 8 5 Z 1022,8 20 0 0,0
10.10.2019 23:00:00 13,0 9,6 7,6 18,4 19,5 5 3 9 5 ZZW 1022,7 24 0 0,0
10.10.2019 22:00:00 14,8 9,2 9,2 18,5 19,4 3 1 9 5 O 1022,6 16 0 0,0
10.10.2019 21:00:00 17,0 9,2 11,8 18,6 19,5 5 3 11 6 ONO 1022,5 34 0 0,0
10.10.2019 20:00:00 18,0 9,1 14,1 18,6 19,5 6 3 10 5 NNO 1022,2 46 0 0,0
10.10.2019 19:00:00 19,3 8,9 19,1 18,5 19,5 7 4 14 8 N 1022,0 48 57 0,0
10.10.2019 18:00:00 20,7 9,3 23,9 18,3 19,5 6 4 20 11 NW 1022,1 46 54 0,0
10.10.2019 17:00:00 20,4 9,3 22,5 18,2 19,5 6 3 19 10 N 1022,3 44 3 0,0
10.10.2019 16:00:00 19,9 10,0 22,0 18,1 19,5 11 6 22 12 N 1022,7 43 8 0,0
10.10.2019 15:00:00 20,1 9,3 21,1 17,8 19,5 10 6 31 17 WNW 1022,8 19 7 0,0
10.10.2019 14:00:00 20,8 10,0 20,3 17,6 19,5 13 7 23 12 W 1023,4 18 37 0,0
10.10.2019 13:00:00 20,0 10,7 20,0 17,5 19,5 12 6 25 13 WNW 1023,9 30 49 0,0
10.10.2019 12:00:00 18,7 11,0 20,5 17,4 19,5 11 6 26 14 W 1024,4 14 52 0,0
10.10.2019 11:00:00 17,2 11,9 19,2 17,4 19,5 8 5 16 9 W 1024,8 22 60 0,0
10.10.2019 10:00:00 14,5 11,3 14,1 17,5 19,5 6 3 12 6 ZW 1024,9 20 60 0,0
10.10.2019 09:00:00 11,4 10,3 7,2 17,7 19,5 7 4 10 5 Z 1024,5 19 28 0,0
10.10.2019 08:00:00 10,9 9,8 6,8 17,8 19,5 3 1 7 4 ZZO 1024,1 22 0 0,0
10.10.2019 07:00:00 11,1 10,0 7,3 18,0 19,5 5 3 9 5 Z 1023,9 20 0 0,0
10.10.2019 06:00:00 11,8 9,9 9,7 18,1 19,5 6 3 17 9 WNW 1023,4 18 0 0,0
10.10.2019 05:00:00 12,4 10,6 10,7 18,2 19,5 13 7 20 11 WZW 1023,0 28 0 0,0
10.10.2019 04:00:00 12,1 10,5 10,5 18,3 19,5 13 7 21 12 WZW 1022,8 30 0 0,0
10.10.2019 03:00:00 13,0 11,1 11,9 18,5 19,5 16 9 26 14 WZW 1022,8 29 0 0,0
10.10.2019 02:00:00 13,4 11,3 12,2 18,6 19,5 18 10 26 14 W 1022,9 33 0 0,0
10.10.2019 01:00:00 13,7 11,2 12,6 18,7 19,5 11 6 25 14 WZW 1023,0 36 0 0,0
10.10.2019 00:00:00 14,5 12,0 12,8 18,8 19,5 18 10 26 14 W 1023,1 34 0 0,0
09.10.2019 23:00:00 14,4 11,2 13,2 19,0 19,5 16 9 29 16 W 1022,7 36 0 0,0
09.10.2019 22:00:00 15,3 11,3 14,0 19,0 19,5 21 11 37 20 W 1022,6 41 0 0,0
09.10.2019 21:00:00 16,1 12,3 15,5 19,1 19,5 20 11 30 16 WZW 1022,2 36 0 0,0

tt = temperatuur
td = dauwpunt
tt 5cm = temperatuur 5cm
tt -20cm = temperatuur -20cm
tt -100cm = temperatuur -100cm
ff = windsnelheid
fx = windstoten
dd = windrichting
ppp = luchtdruk
vv = zicht
sd = Zonneschijnduur
rr = neerslag

Weerstations in de omgeving